�v������,���O�C��(��),���O���x(��),�Ɠx(lx),��O�J�Z���T�[(1:�~�J),����(m/s)
2023-11-01 00:00:00,12.7,82.3,0,0.0,2
2023-11-01 00:10:00,12.6,82.5,2,0.0,1
2023-11-01 00:20:00,12.4,83,2,0.0,1
2023-11-01 00:30:00,12.6,83.5,2,0.0,1
2023-11-01 00:40:00,12.3,84.2,2,0.0,1
2023-11-01 00:50:00,12.3,84.9,0,0.0,0
2023-11-01 01:00:00,12.2,85.3,2,0.0,1
2023-11-01 01:10:00,11.9,85.6,2,0.0,1
2023-11-01 01:20:00,12,85.6,0,0.0,1
2023-11-01 01:30:00,11.6,85.6,0,0.0,1
2023-11-01 01:40:00,12,85.4,0,0.0,1
2023-11-01 01:50:00,11.8,85.1,0,0.0,1
2023-11-01 02:00:00,12,84.8,0,0.0,1
2023-11-01 02:10:00,11.8,85.1,0,0.0,1
2023-11-01 02:20:00,11.4,86.3,2,0.0,1
2023-11-01 02:30:00,11.4,86.6,0,0.0,1
2023-11-01 02:40:00,11.3,86.9,0,0.0,1
2023-11-01 02:50:00,11.2,87.5,2,0.0,2
2023-11-01 03:00:00,11,87.7,2,0.0,0
2023-11-01 03:10:00,11.1,87.8,0,0.0,1
2023-11-01 03:20:00,11.2,88,0,0.0,2
2023-11-01 03:30:00,10.9,87.8,0,0.0,1
2023-11-01 03:40:00,11,88,0,0.0,1
2023-11-01 03:50:00,10.7,88.2,0,0.0,2
2023-11-01 04:00:00,10.8,88.2,0,0.0,2.5
2023-11-01 04:10:00,10.8,88.3,0,0.0,1
2023-11-01 04:20:00,10.6,88.8,0,0.0,2
2023-11-01 04:30:00,10.6,88.6,2,0.0,2
2023-11-01 04:40:00,10.6,88.1,2,0.0,1
2023-11-01 04:50:00,10.5,88,0,0.0,1
2023-11-01 05:00:00,10.5,87.5,0,0.0,1
2023-11-01 05:10:00,10.4,86.9,0,0.0,2
2023-11-01 05:20:00,10.6,85.9,0,0.0,1
2023-11-01 05:30:00,10.5,86.6,2,0.0,1
2023-11-01 05:40:00,10.6,88.1,0,0.0,1
2023-11-01 05:50:00,10.1,89.8,2,0.0,1
2023-11-01 06:00:00,10,90.7,2,0.0,1
2023-11-01 06:10:00,9.8,91.4,26,0.0,2
2023-11-01 06:20:00,9.7,91.4,200,0.0,1
2023-11-01 06:30:00,9.8,90.9,999.68,0.0,2
2023-11-01 06:40:00,9.7,89.2,1999.36,0.0,1
2023-11-01 06:50:00,9.8,88.3,5995.52,0.0,1
2023-11-01 07:00:00,10,87.4,20992,0.0,1
2023-11-01 07:10:00,10.1,86,25989.1,0.0,1.5
2023-11-01 07:20:00,10.3,84.9,28999.7,0.0,1.5
2023-11-01 07:30:00,10.8,83,31989.8,0.0,1
2023-11-01 07:40:00,10.9,81,34979.8,0.0,2
2023-11-01 07:50:00,11.2,79.7,35983.4,0.0,2
2023-11-01 08:00:00,11.6,77.8,35983.4,0.0,1
2023-11-01 08:10:00,12.1,71.2,36986.9,0.0,2
2023-11-01 08:20:00,12.9,70.7,34979.8,0.0,2
2023-11-01 08:30:00,13,70.2,33996.8,0.0,2
2023-11-01 08:40:00,13.5,68.8,31989.8,0.0,3
2023-11-01 08:50:00,13.8,67.8,30986.2,0.0,1
2023-11-01 09:00:00,14.5,66.8,29982.7,0.0,1
2023-11-01 09:10:00,15,64.1,29982.7,0.0,2.5
2023-11-01 09:20:00,15.7,61.5,28999.7,0.0,2
2023-11-01 09:30:00,16.3,57.8,27996.2,0.0,3
2023-11-01 09:40:00,17,55.5,27996.2,0.0,1
2023-11-01 09:50:00,17.6,53.8,26992.6,0.0,1
2023-11-01 10:00:00,18,53.9,26992.6,0.0,1
2023-11-01 10:10:00,18.7,52.8,25989.1,0.0,1
2023-11-01 10:20:00,19.3,51,25989.1,0.0,1
2023-11-01 10:30:00,19.8,45,25989.1,0.0,1
2023-11-01 10:40:00,20.7,46.4,25989.1,0.0,1
2023-11-01 10:50:00,21.1,44.2,24985.6,0.0,1
2023-11-01 11:00:00,21.2,44.3,24985.6,0.0,1
2023-11-01 11:10:00,21.2,44.7,24985.6,0.0,1
2023-11-01 11:20:00,22.2,42.4,24985.6,0.0,2
2023-11-01 11:30:00,22.5,40.6,24985.6,0.0,1
2023-11-01 11:40:00,22.9,40.6,24985.6,0.0,1
2023-11-01 11:50:00,23.6,37.5,23982.1,0.0,1
2023-11-01 12:00:00,23.8,36,23982.1,0.0,1
2023-11-01 12:10:00,24.1,33.1,23982.1,0.0,2
2023-11-01 12:20:00,24.5,36.9,24985.6,0.0,1
2023-11-01 12:30:00,22.8,43.1,23982.1,0.0,2.5
2023-11-01 12:40:00,23.4,43.8,24985.6,0.0,2
2023-11-01 12:50:00,23,45.4,24985.6,0.0,3
2023-11-01 13:00:00,23.4,35.8,24985.6,0.0,1
2023-11-01 13:10:00,24.4,38.9,24985.6,0.0,2
2023-11-01 13:20:00,24.4,28.3,24985.6,0.0,2
2023-11-01 13:30:00,25,29,25989.1,0.0,1
2023-11-01 13:40:00,25.3,28.2,25989.1,0.0,1
2023-11-01 13:50:00,25.3,31.7,25989.1,0.0,1
2023-11-01 14:00:00,24.1,40.1,25989.1,0.0,2
2023-11-01 14:10:00,23.5,41.7,24985.6,0.0,2
2023-11-01 14:20:00,23.2,39.7,24985.6,0.0,3
2023-11-01 14:30:00,23.3,42.7,24985.6,0.0,2
2023-11-01 14:40:00,23.2,40.5,24985.6,0.0,1
2023-11-01 14:50:00,23.1,43.4,23982.1,0.0,3
2023-11-01 15:00:00,23.3,40.8,19998.7,0.0,1
2023-11-01 15:10:00,24,41.4,22999,0.0,3
2023-11-01 15:20:00,24,40.2,18995.2,0.0,2
2023-11-01 15:30:00,23.7,43.7,20992,0.0,2.5
2023-11-01 15:40:00,23.4,45.5,17991.7,0.0,1
2023-11-01 15:50:00,23.4,45,15994.9,0.0,2
2023-11-01 16:00:00,23.4,44.1,11991,0.0,1
2023-11-01 16:10:00,23.1,45.5,14991.4,0.0,1
2023-11-01 16:20:00,22.2,45.2,13998.1,0.0,2
2023-11-01 16:30:00,22.2,44.4,10997.8,0.0,1
2023-11-01 16:40:00,22.1,44.8,9999.36,0.0,2
2023-11-01 16:50:00,21.9,46.7,7997.44,0.0,1
2023-11-01 17:00:00,21.7,50.5,3998.72,0.0,2
2023-11-01 17:10:00,21.3,51.5,1999.36,0.0,2
2023-11-01 17:20:00,20.9,52.5,999.68,0.0,2
2023-11-01 17:30:00,21,52,499.84,0.0,1
2023-11-01 17:40:00,20.8,53.8,66,0.0,1
2023-11-01 17:50:00,20.8,54.9,6,0.0,2
2023-11-01 18:00:00,20.4,59.3,2,0.0,1
2023-11-01 18:10:00,20,60,2,0.0,1
2023-11-01 18:20:00,19.5,61.7,2,0.0,1
2023-11-01 18:30:00,19.3,64.4,2,0.0,1
2023-11-01 18:40:00,18.6,67.3,2,0.0,2
2023-11-01 18:50:00,18.2,69.4,2,0.0,1
2023-11-01 19:00:00,18.1,69.9,2,0.0,2
2023-11-01 19:10:00,17.9,70.1,2,0.0,2
2023-11-01 19:20:00,17.5,69.8,2,0.0,1
2023-11-01 19:30:00,17.7,69.3,2,0.0,1
2023-11-01 19:40:00,17.5,70.1,2,0.0,1
2023-11-01 19:50:00,17.1,70.4,2,0.0,0
2023-11-01 20:00:00,17,70.9,2,0.0,1
2023-11-01 20:10:00,16.6,73,0,0.0,1
2023-11-01 20:20:00,16.3,74.1,2,0.0,1
2023-11-01 20:30:00,16.2,74.7,0,0.0,1
2023-11-01 20:40:00,16.2,75.5,0,0.0,1
2023-11-01 20:50:00,16.1,76,2,0.0,1
2023-11-01 21:00:00,15.6,76.1,0,0.0,0.5
2023-11-01 21:10:00,15.8,75.7,0,0.0,1.5
2023-11-01 21:20:00,15.7,75.1,2,0.0,1
2023-11-01 21:30:00,15.5,76.8,0,0.0,1
2023-11-01 21:40:00,15.5,77.1,2,0.0,2
2023-11-01 21:50:00,15.2,77.6,0,0.0,0
2023-11-01 22:00:00,15.1,79.6,2,0.0,1
2023-11-01 22:10:00,14.9,79.7,0,0.0,2
2023-11-01 22:20:00,14.7,80.6,0,0.0,1
2023-11-01 22:30:00,14.5,84,2,0.0,1
2023-11-01 22:40:00,14,84,2,0.0,2
2023-11-01 22:50:00,14.1,83.2,0,0.0,1
2023-11-01 23:00:00,14.3,84.9,0,0.0,1
2023-11-01 23:10:00,14.1,83.6,2,0.0,1.5
2023-11-01 23:20:00,13.9,81.7,0,0.0,1
2023-11-01 23:30:00,13.9,80.6,2,0.0,2
2023-11-01 23:40:00,13.8,79.1,2,0.0,1
2023-11-01 23:50:00,13.9,79,2,0.0,1
2023-11-02 00:00:00,13.4,78.4,2,0.0,2
2023-11-02 00:10:00,13.5,77.7,2,0.0,1
2023-11-02 00:20:00,13.8,79.1,2,0.0,1
2023-11-02 00:30:00,13.2,80.5,2,0.0,1.5
2023-11-02 00:40:00,13.3,83.6,2,0.0,2
2023-11-02 00:50:00,12.9,85.3,2,0.0,2
2023-11-02 01:00:00,13,85.8,0,0.0,2
2023-11-02 01:10:00,12.8,86.9,2,0.0,0
2023-11-02 01:20:00,12.5,86.8,2,0.0,2
2023-11-02 01:30:00,12.5,88,2,0.0,2
2023-11-02 01:40:00,12.7,89.4,2,0.0,2
2023-11-02 01:50:00,12.6,88.7,0,0.0,1
2023-11-02 02:00:00,12.3,86.1,2,0.0,1
2023-11-02 02:10:00,12.4,85.6,2,0.0,1
2023-11-02 02:20:00,12.3,84.8,0,0.0,1
2023-11-02 02:30:00,11.9,85,0,0.0,1
2023-11-02 02:40:00,12,84,0,0.0,1
2023-11-02 02:50:00,12,81.5,0,0.0,1
2023-11-02 03:00:00,12.1,79.8,0,0.0,1.5
2023-11-02 03:10:00,11.8,81.1,0,0.0,1
2023-11-02 03:20:00,11.9,82.3,0,0.0,1
2023-11-02 03:30:00,11.5,83.5,0,0.0,1
2023-11-02 03:40:00,11.2,83.2,0,0.0,1
2023-11-02 03:50:00,11.4,83.2,0,0.0,0.5
2023-11-02 04:00:00,11.2,82.3,0,0.0,1
2023-11-02 04:10:00,11.2,82.2,0,0.0,1
2023-11-02 04:20:00,11.2,82.3,0,0.0,2
2023-11-02 04:30:00,11.1,81.8,2,0.0,2
2023-11-02 04:40:00,11.1,82.3,2,0.0,1
2023-11-02 04:50:00,11.1,81.9,0,0.0,1
2023-11-02 05:00:00,10.9,82.2,0,0.0,1
2023-11-02 05:10:00,10.9,82.1,0,0.0,1
2023-11-02 05:20:00,10.9,81.6,0,0.0,0
2023-11-02 05:30:00,10.9,81.3,0,0.0,2
2023-11-02 05:40:00,10.8,81.1,0,0.0,0
2023-11-02 05:50:00,10.8,81.2,2,0.0,2
2023-11-02 06:00:00,10.7,81,4,0.0,1
2023-11-02 06:10:00,10.8,80.1,28,0.0,1.5
2023-11-02 06:20:00,11.1,80.2,204,0.0,1
2023-11-02 06:30:00,10.9,81.2,499.84,0.0,1
2023-11-02 06:40:00,10.7,83.4,999.68,0.0,1.5
2023-11-02 06:50:00,10.6,86,2997.76,0.0,1
2023-11-02 07:00:00,10.6,86.4,14991.4,0.0,2
2023-11-02 07:10:00,10.7,84.9,20992,0.0,1
2023-11-02 07:20:00,11.1,84.7,25989.1,0.0,1
2023-11-02 07:30:00,11.2,82.8,28999.7,0.0,1.5
2023-11-02 07:40:00,11.4,79.9,31989.8,0.0,1
2023-11-02 07:50:00,11.6,79.4,33996.8,0.0,1.5
2023-11-02 08:00:00,12.1,76.8,34979.8,0.0,1
2023-11-02 08:10:00,12.5,73.9,34979.8,0.0,3
2023-11-02 08:20:00,12.9,72.8,33996.8,0.0,1
2023-11-02 08:30:00,13.2,69.7,32993.3,0.0,1
2023-11-02 08:40:00,14,66.8,31498.2,0.0,1
2023-11-02 08:50:00,14.7,64.1,30986.2,0.0,1
2023-11-02 09:00:00,15.4,60.6,29982.7,0.0,1
2023-11-02 09:10:00,15.9,58.7,28999.7,0.0,2
2023-11-02 09:20:00,16.7,56.3,28999.7,0.0,1.5
2023-11-02 09:30:00,17.1,54.2,27996.2,0.0,0.5
2023-11-02 09:40:00,18,51.9,26992.6,0.0,2
2023-11-02 09:50:00,18.6,49.9,26992.6,0.0,2
2023-11-02 10:00:00,19.3,49.4,25989.1,0.0,1.5
2023-11-02 10:10:00,19.9,46.8,25989.1,0.0,2
2023-11-02 10:20:00,20.4,47,25989.1,0.0,1
2023-11-02 10:30:00,20.9,45.7,25989.1,0.0,1
2023-11-02 10:40:00,21.8,44.4,24985.6,0.0,1
2023-11-02 10:50:00,22.5,42.9,24985.6,0.0,1
2023-11-02 11:00:00,22.9,41.9,24985.6,0.0,1
2023-11-02 11:10:00,23.5,41.3,24985.6,0.0,1
2023-11-02 11:20:00,23.6,40.9,23982.1,0.0,1
2023-11-02 11:30:00,24,40.3,23982.1,0.0,2
2023-11-02 11:40:00,24,40.4,23982.1,0.0,1
2023-11-02 11:50:00,23.7,41.4,23982.1,0.0,2.5
2023-11-02 12:00:00,24.1,41.9,23982.1,0.0,2.5
2023-11-02 12:10:00,24,42.5,23982.1,0.0,2
2023-11-02 12:20:00,24.2,41.9,23982.1,0.0,1
2023-11-02 12:30:00,24.5,42.1,23982.1,0.0,1
2023-11-02 12:40:00,25,40.2,23982.1,0.0,1
2023-11-02 12:50:00,24.1,42,23982.1,0.0,4
2023-11-02 13:00:00,23.2,45.3,24985.6,0.0,3.5
2023-11-02 13:10:00,23.8,45.3,24985.6,0.0,1
2023-11-02 13:20:00,23.9,44.3,24985.6,0.0,2
2023-11-02 13:30:00,24,43.5,24985.6,0.0,2.5
2023-11-02 13:40:00,24.1,43.3,24985.6,0.0,3
2023-11-02 13:50:00,24.3,44,24985.6,0.0,3
2023-11-02 14:00:00,24.4,44.5,24985.6,0.0,1
2023-11-02 14:10:00,25.5,41.8,24985.6,0.0,3
2023-11-02 14:20:00,25.5,42.3,23982.1,0.0,3
2023-11-02 14:30:00,25.1,42.9,23982.1,0.0,3
2023-11-02 14:40:00,25.3,43.6,23982.1,0.0,2
2023-11-02 14:50:00,24.9,43.7,23982.1,0.0,2
2023-11-02 15:00:00,25,43.4,22999,0.0,1
2023-11-02 15:10:00,25.1,41.9,22999,0.0,1
2023-11-02 15:20:00,25,40.3,21995.5,0.0,1
2023-11-02 15:30:00,24.8,44.9,20992,0.0,1.5
2023-11-02 15:40:00,23.7,41.5,19998.7,0.0,2
2023-11-02 15:50:00,23.4,40.1,18995.2,0.0,2
2023-11-02 16:00:00,23.4,42.6,17991.7,0.0,2
2023-11-02 16:10:00,23.1,50,15994.9,0.0,2
2023-11-02 16:20:00,22.6,49,14991.4,0.0,2.5
2023-11-02 16:30:00,22.4,52.4,12994.6,0.0,2
2023-11-02 16:40:00,22.2,55.8,10997.8,0.0,2
2023-11-02 16:50:00,22.2,57,8995.84,0.0,2
2023-11-02 17:00:00,22.1,58.9,4999.68,0.0,2
2023-11-02 17:10:00,21.9,60.3,2997.76,0.0,0
2023-11-02 17:20:00,21.5,62.8,999.68,0.0,1
2023-11-02 17:30:00,21.5,64.5,499.84,0.0,0
2023-11-02 17:40:00,21.3,65.5,80,0.0,1
2023-11-02 17:50:00,20.8,67.1,8,0.0,0
2023-11-02 18:00:00,20.5,68.6,2,0.0,1
2023-11-02 18:10:00,20.5,69.2,2,0.0,1
2023-11-02 18:20:00,20.2,69.2,2,0.0,1
2023-11-02 18:30:00,19.8,69.7,2,0.0,2
2023-11-02 18:40:00,19.7,69.1,2,0.0,1
2023-11-02 18:50:00,19.5,69.4,2,0.0,2
2023-11-02 19:00:00,19.4,69.4,2,0.0,1
2023-11-02 19:10:00,19.1,70,2,0.0,1.5
2023-11-02 19:20:00,18.9,70.2,2,0.0,2
2023-11-02 19:30:00,18.9,70.6,2,0.0,1
2023-11-02 19:40:00,18.7,71.4,2,0.0,1
2023-11-02 19:50:00,18.4,72.2,2,0.0,1
2023-11-02 20:00:00,18.2,73,2,0.0,1
2023-11-02 20:10:00,18,73.2,2,0.0,1
2023-11-02 20:20:00,17.8,73.3,0,0.0,1
2023-11-02 20:30:00,17.7,73.8,0,0.0,1
2023-11-02 20:40:00,17.4,74,2,0.0,2
2023-11-02 20:50:00,17.3,74.2,2,0.0,1
2023-11-02 21:00:00,17.1,74.6,2,0.0,1
2023-11-02 21:10:00,17.1,74.5,2,0.0,1
2023-11-02 21:20:00,16.9,74.5,2,0.0,1.5
2023-11-02 21:30:00,16.8,75.4,0,0.0,1
2023-11-02 21:40:00,16.6,76.1,2,0.0,2
2023-11-02 21:50:00,16.6,76.4,0,0.0,1
2023-11-02 22:00:00,16.5,76.7,2,0.0,1
2023-11-02 22:10:00,16.1,76.9,2,0.0,1
2023-11-02 22:20:00,16,76.6,2,0.0,1
2023-11-02 22:30:00,15.9,76.7,2,0.0,1
2023-11-02 22:40:00,15.8,76.7,0,0.0,1.5
2023-11-02 22:50:00,15.9,76.3,0,0.0,1
2023-11-02 23:00:00,15.8,76.6,2,0.0,1.5
2023-11-02 23:10:00,15.5,77.6,2,0.0,1
2023-11-02 23:20:00,15.4,79.7,2,0.0,1
2023-11-02 23:30:00,15,80.6,0,0.0,1
2023-11-02 23:40:00,15,81.2,2,0.0,1
2023-11-02 23:50:00,14.9,81.5,2,0.0,2
2023-11-03 00:00:00,15,80.6,2,0.0,0
2023-11-03 00:10:00,14.9,80,0,0.0,1
2023-11-03 00:20:00,15.1,80.6,2,0.0,2
2023-11-03 00:30:00,14.6,80.7,0,0.0,1
2023-11-03 00:40:00,14.8,81.5,2,0.0,1
2023-11-03 00:50:00,14.6,81.2,2,0.0,1.5
2023-11-03 01:00:00,14.4,81.7,2,0.0,0
2023-11-03 01:10:00,14.4,83.1,2,0.0,1
2023-11-03 01:20:00,13.9,85.9,0,0.0,1
2023-11-03 01:30:00,13.8,87.2,2,0.0,1
2023-11-03 01:40:00,13.6,87.1,0,0.0,1
2023-11-03 01:50:00,13.3,88.9,0,0.0,3
2023-11-03 02:00:00,13.3,88.8,0,0.0,3
2023-11-03 02:10:00,13.3,89.5,2,0.0,2
2023-11-03 02:20:00,13.4,90.7,0,0.0,1
2023-11-03 02:30:00,13.2,90.5,0,0.0,1
2023-11-03 02:40:00,13.2,89.6,2,0.0,0
2023-11-03 02:50:00,13,89.4,2,0.0,1
2023-11-03 03:00:00,13.1,89,2,0.0,1
2023-11-03 03:10:00,12.9,88.9,0,0.0,1
2023-11-03 03:20:00,12.8,88.8,2,0.0,1.5
2023-11-03 03:30:00,12.9,88.5,0,0.0,1
2023-11-03 03:40:00,12.9,87.5,0,0.0,1
2023-11-03 03:50:00,13.1,87.2,0,0.0,0
2023-11-03 04:00:00,12.9,88.1,0,0.0,1
2023-11-03 04:10:00,12.7,88.5,0,0.0,2
2023-11-03 04:20:00,12.8,89,0,0.0,2
2023-11-03 04:30:00,12.1,91.4,2,0.0,2
2023-11-03 04:40:00,12,91.7,0,0.0,1
2023-11-03 04:50:00,12,91.5,0,0.0,1
2023-11-03 05:00:00,11.8,91.3,0,0.0,1
2023-11-03 05:10:00,12,91.3,2,0.0,2
2023-11-03 05:20:00,12,91,0,0.0,1
2023-11-03 05:30:00,11.7,91,0,0.0,1
2023-11-03 05:40:00,11.9,91,0,0.0,0
2023-11-03 05:50:00,11.9,90.5,2,0.0,1
2023-11-03 06:00:00,11.8,90.6,2,0.0,1
2023-11-03 06:10:00,11.6,90.5,16,0.0,0
2023-11-03 06:20:00,11.6,90.7,146,0.0,0
2023-11-03 06:30:00,11.5,92.8,999.68,0.0,1.5
2023-11-03 06:40:00,11.5,92.4,999.68,0.0,1
2023-11-03 06:50:00,11.6,92,1999.36,0.0,3
2023-11-03 07:00:00,11.5,92,14991.4,0.0,3
2023-11-03 07:10:00,11.4,91.7,21995.5,0.0,1
2023-11-03 07:20:00,11.9,90.9,26992.6,0.0,0
2023-11-03 07:30:00,12.3,89.4,28999.7,0.0,1
2023-11-03 07:40:00,12.5,86.6,31989.8,0.0,1
2023-11-03 07:50:00,13,83.9,32993.3,0.0,1
2023-11-03 08:00:00,13.4,81.3,34979.8,0.0,2
2023-11-03 08:10:00,13.9,78.4,34979.8,0.0,2
2023-11-03 08:20:00,14.1,77.1,33996.8,0.0,1
2023-11-03 08:30:00,14.8,74.7,31989.8,0.0,2
2023-11-03 08:40:00,15.2,73.8,31989.8,0.0,1
2023-11-03 08:50:00,15.9,71.5,30986.2,0.0,2
2023-11-03 09:00:00,16.6,67.8,29982.7,0.0,2
2023-11-03 09:10:00,17.1,68.5,28999.7,0.0,1
2023-11-03 09:20:00,17.5,65.6,27996.2,0.0,2
2023-11-03 09:30:00,18.2,63.7,27996.2,0.0,1
2023-11-03 09:40:00,18.7,59.8,26992.6,0.0,2
2023-11-03 09:50:00,19.2,56.9,25989.1,0.0,1
2023-11-03 10:00:00,19.7,56.3,25989.1,0.0,1
2023-11-03 10:10:00,20.5,54.3,25989.1,0.0,1
2023-11-03 10:20:00,21,53.1,25989.1,0.0,1
2023-11-03 10:30:00,21.2,53.1,25989.1,0.0,1
2023-11-03 10:40:00,21.8,50.8,24985.6,0.0,2
2023-11-03 10:50:00,22.5,48,24985.6,0.0,1
2023-11-03 11:00:00,22.6,47.9,23982.1,0.0,2
2023-11-03 11:10:00,22.2,52.5,23982.1,0.0,3
2023-11-03 11:20:00,22.1,56.2,23982.1,0.0,2.5
2023-11-03 11:30:00,22,56.2,23982.1,0.0,3
2023-11-03 11:40:00,21.7,57.4,23982.1,0.0,3.5
2023-11-03 11:50:00,21.6,56.4,23982.1,0.0,3
2023-11-03 12:00:00,22,54.6,23982.1,0.0,1.5
2023-11-03 12:10:00,21.7,58.4,23982.1,0.0,3.5
2023-11-03 12:20:00,21.3,57.3,23982.1,0.0,4.5
2023-11-03 12:30:00,21.8,59.1,23982.1,0.0,3
2023-11-03 12:40:00,22.1,60.8,23982.1,0.0,2
2023-11-03 12:50:00,22.9,57,23982.1,0.0,2
2023-11-03 13:00:00,22.2,66.5,24985.6,0.0,1
2023-11-03 13:10:00,21.6,74.2,24985.6,0.0,5
2023-11-03 13:20:00,21.5,75.8,24985.6,0.0,2
2023-11-03 13:30:00,21.3,78.5,24985.6,0.0,5
2023-11-03 13:40:00,21.5,80,24985.6,0.0,3
2023-11-03 13:50:00,21.7,79.1,24985.6,0.0,4
2023-11-03 14:00:00,21.9,81.2,24985.6,0.0,5
2023-11-03 14:10:00,22,78.9,24985.6,0.0,5
2023-11-03 14:20:00,22.7,77.2,23982.1,0.0,2
2023-11-03 14:30:00,22.5,79.3,23982.1,0.0,4.5
2023-11-03 14:40:00,22.5,78.6,23982.1,0.0,3
2023-11-03 14:50:00,23,76,22999,0.0,3
2023-11-03 15:00:00,23,74.7,22999,0.0,4
2023-11-03 15:10:00,23.1,70.8,21995.5,0.0,2.5
2023-11-03 15:20:00,23.1,72.8,20992,0.0,3
2023-11-03 15:30:00,23.2,69.9,19998.7,0.0,3.5
2023-11-03 15:40:00,23.2,69.5,18995.2,0.0,3
2023-11-03 15:50:00,23.3,67.4,17991.7,0.0,3
2023-11-03 16:00:00,23.4,63.5,16998.4,0.0,1.5
2023-11-03 16:10:00,23.1,63.2,14991.4,0.0,4
2023-11-03 16:20:00,23.3,65.1,12994.6,0.0,3
2023-11-03 16:30:00,23,74.1,10997.8,0.0,3
2023-11-03 16:40:00,22.1,78.1,8995.84,0.0,2
2023-11-03 16:50:00,22.1,79.9,6999.04,0.0,2
2023-11-03 17:00:00,22.1,79.9,3998.72,0.0,1
2023-11-03 17:10:00,21.9,79.6,1999.36,0.0,1
2023-11-03 17:20:00,21.8,76,999.68,0.0,1
2023-11-03 17:30:00,21.6,73.4,472,0.0,1
2023-11-03 17:40:00,21.6,74,72,0.0,0
2023-11-03 17:50:00,20.8,75.4,8,0.0,1
2023-11-03 18:00:00,20.7,74.5,2,0.0,1
2023-11-03 18:10:00,20.5,77.1,2,0.0,1
2023-11-03 18:20:00,20,77.1,2,0.0,1.5
2023-11-03 18:30:00,20.2,76.2,2,0.0,1
2023-11-03 18:40:00,19.7,73.8,2,0.0,1
2023-11-03 18:50:00,19.7,72.9,2,0.0,1
2023-11-03 19:00:00,19.6,73.3,2,0.0,2
2023-11-03 19:10:00,19.6,73.9,2,0.0,1
2023-11-03 19:20:00,19.4,75.4,2,0.0,1
2023-11-03 19:30:00,19,76.5,2,0.0,1
2023-11-03 19:40:00,18.8,77,2,0.0,1
2023-11-03 19:50:00,18.7,76.8,2,0.0,1
2023-11-03 20:00:00,18.4,76.5,2,0.0,1.5
2023-11-03 20:10:00,18.4,76.5,2,0.0,2
2023-11-03 20:20:00,18.2,77,2,0.0,0
2023-11-03 20:30:00,17.9,78.1,2,0.0,2
2023-11-03 20:40:00,18,79.4,2,0.0,0.5
2023-11-03 20:50:00,17.5,80.2,2,0.0,1
2023-11-03 21:00:00,17.4,80.4,2,0.0,1
2023-11-03 21:10:00,17.4,80.2,2,0.0,0.5
2023-11-03 21:20:00,17.2,80.2,2,0.0,1
2023-11-03 21:30:00,17,80.8,0,0.0,1.5
2023-11-03 21:40:00,16.8,81.2,0,0.0,1
2023-11-03 21:50:00,17,80.9,2,0.0,1
2023-11-03 22:00:00,16.5,81.4,2,0.0,1
2023-11-03 22:10:00,16.6,82,2,0.0,1
2023-11-03 22:20:00,16.6,82,2,0.0,1.5
2023-11-03 22:30:00,16.5,82.2,0,0.0,2
2023-11-03 22:40:00,16.1,82.5,2,0.0,1
2023-11-03 22:50:00,16.1,82.9,0,0.0,1
2023-11-03 23:00:00,15.9,83.3,0,0.0,1
2023-11-03 23:10:00,15.9,83.2,2,0.0,1
2023-11-03 23:20:00,15.6,83.3,0,0.0,1
2023-11-03 23:30:00,15.9,83.5,2,0.0,1
2023-11-03 23:40:00,15.5,83.6,2,0.0,2
2023-11-03 23:50:00,15.5,84.1,2,0.0,1
2023-11-04 00:00:00,15.4,84.5,0,0.0,2
2023-11-04 00:10:00,15.1,84.9,0,0.0,2
2023-11-04 00:20:00,15.2,86.1,0,0.0,2
2023-11-04 00:30:00,15.1,86.5,0,0.0,1
2023-11-04 00:40:00,15.1,86.5,2,0.0,2
2023-11-04 00:50:00,15.1,86.5,2,0.0,1
2023-11-04 01:00:00,15,86.9,2,0.0,1
2023-11-04 01:10:00,14.9,87.2,2,0.0,1
2023-11-04 01:20:00,14.9,87.3,0,0.0,1
2023-11-04 01:30:00,14.9,87.4,0,0.0,1
2023-11-04 01:40:00,14.8,87.9,2,0.0,1
2023-11-04 01:50:00,14.7,88.6,2,0.0,1
2023-11-04 02:00:00,14.7,88.7,2,0.0,1
2023-11-04 02:10:00,14.5,89,2,0.0,1
2023-11-04 02:20:00,14.3,89,0,0.0,0
2023-11-04 02:30:00,14.4,89.1,2,0.0,1
2023-11-04 02:40:00,14.2,89.6,2,0.0,1
2023-11-04 02:50:00,14.4,89.8,2,0.0,1
2023-11-04 03:00:00,14.2,90.1,0,0.0,1
2023-11-04 03:10:00,14.1,90.5,2,0.0,1
2023-11-04 03:20:00,13.9,90.4,2,0.0,2
2023-11-04 03:30:00,14.1,90,2,0.0,0.5
2023-11-04 03:40:00,14,89.8,0,0.0,2
2023-11-04 03:50:00,14,90.3,0,0.0,1
2023-11-04 04:00:00,14.2,90.4,2,0.0,1
2023-11-04 04:10:00,14.1,89.8,0,0.0,1
2023-11-04 04:20:00,14,90.2,0,0.0,1
2023-11-04 04:30:00,14.1,91.1,2,0.0,1
2023-11-04 04:40:00,14,91.4,0,0.0,1
2023-11-04 04:50:00,14,91.4,0,0.0,1
2023-11-04 05:00:00,13.9,91.9,0,0.0,1
2023-11-04 05:10:00,13.4,92.8,2,0.0,2
2023-11-04 05:20:00,13.7,93.6,0,0.0,1
2023-11-04 05:30:00,13.6,93.5,0,0.0,1
2023-11-04 05:40:00,13.3,93.9,2,0.0,1
2023-11-04 05:50:00,13.2,94.2,2,0.0,1
2023-11-04 06:00:00,13.2,94,2,0.0,1
2023-11-04 06:10:00,13.1,94,8,0.0,1
2023-11-04 06:20:00,13.4,93.7,96,0.0,1
2023-11-04 06:30:00,13.3,93.4,999.68,0.0,1.5
2023-11-04 06:40:00,13.3,93.3,999.68,0.0,2
2023-11-04 06:50:00,13.4,94.7,1999.36,0.0,1
2023-11-04 07:00:00,13.3,94.5,9999.36,0.0,2
2023-11-04 07:10:00,13.6,93.6,18995.2,0.0,1
2023-11-04 07:20:00,13.8,92.8,22999,0.0,2
2023-11-04 07:30:00,13.9,92.8,25989.1,0.0,1.5
2023-11-04 07:40:00,14.2,91.8,28999.7,0.0,1
2023-11-04 07:50:00,14.4,89,30986.2,0.0,2
2023-11-04 08:00:00,14.8,86.5,32993.3,0.0,2
2023-11-04 08:10:00,15.1,84.5,32993.3,0.0,1
2023-11-04 08:20:00,15.9,82.6,31989.8,0.0,1.5
2023-11-04 08:30:00,16.5,80.7,31989.8,0.0,1
2023-11-04 08:40:00,17.1,78.1,31989.8,0.0,2.5
2023-11-04 08:50:00,17.8,75.5,31989.8,0.0,2
2023-11-04 09:00:00,18,73.9,30986.2,0.0,1
2023-11-04 09:10:00,18.5,72.3,29982.7,0.0,1
2023-11-04 09:20:00,19.4,68.1,27996.2,0.0,1
2023-11-04 09:30:00,19.8,66.5,28999.7,0.0,1
2023-11-04 09:40:00,20.3,64,30494.7,0.0,2
2023-11-04 09:50:00,21.1,62.2,29982.7,0.0,1
2023-11-04 10:00:00,21.6,61.1,28999.7,0.0,1
2023-11-04 10:10:00,21.6,60.3,18995.2,0.0,1
2023-11-04 10:20:00,21.7,59.5,26992.6,0.0,0
2023-11-04 10:30:00,22.8,56.1,29982.7,0.0,1
2023-11-04 10:40:00,23.1,55.6,32993.3,0.0,2
2023-11-04 10:50:00,23,56.8,28999.7,0.0,2
2023-11-04 11:00:00,23,60.3,29982.7,0.0,3.5
2023-11-04 11:10:00,22.4,65,26992.6,0.0,4
2023-11-04 11:20:00,22,67.5,26992.6,0.0,4
2023-11-04 11:30:00,22.6,66.4,25989.1,0.0,2.5
2023-11-04 11:40:00,22.1,66.8,25989.1,0.0,2
2023-11-04 11:50:00,22.3,66.2,27996.2,0.0,1
2023-11-04 12:00:00,22.4,65.1,30986.2,0.0,1.5
2023-11-04 12:10:00,22.7,65.5,24985.6,0.0,1
2023-11-04 12:20:00,22,69.4,26992.6,0.0,5
2023-11-04 12:30:00,22.4,69,21483.5,0.0,3.5
2023-11-04 12:40:00,22.2,71.4,21995.5,0.0,2
2023-11-04 12:50:00,22.1,73.9,27484.2,0.0,4.5
2023-11-04 13:00:00,22.1,76.2,24985.6,0.0,2
2023-11-04 13:10:00,22.1,78.6,25497.6,0.0,4
2023-11-04 13:20:00,22.9,77.3,29982.7,0.0,2
2023-11-04 13:30:00,23.7,71.5,16998.4,0.0,1
2023-11-04 13:40:00,24.2,67.4,27996.2,0.0,1
2023-11-04 13:50:00,24.7,62.2,28999.7,0.0,2
2023-11-04 14:00:00,25.2,59,25989.1,0.0,2
2023-11-04 14:10:00,25,61.5,25989.1,0.0,2
2023-11-04 14:20:00,25.1,63.4,25989.1,0.0,3.5
2023-11-04 14:30:00,25.4,62.9,20992,0.0,3
2023-11-04 14:40:00,25.5,61.6,22999,0.0,3.5
2023-11-04 14:50:00,25.2,60,22999,0.0,3
2023-11-04 15:00:00,25.3,62.1,24985.6,0.0,2.5
2023-11-04 15:10:00,25.2,63.4,12994.6,0.0,2
2023-11-04 15:20:00,24.7,65.8,9999.36,0.0,2
2023-11-04 15:30:00,24.4,68.8,16998.4,0.0,3
2023-11-04 15:40:00,24.2,71.6,17991.7,0.0,3
2023-11-04 15:50:00,23.8,72.4,12994.6,0.0,2.5
2023-11-04 16:00:00,24,70.4,8995.84,0.0,2
2023-11-04 16:10:00,23.9,68.1,7997.44,0.0,2
2023-11-04 16:20:00,24.2,66.3,6999.04,0.0,1
2023-11-04 16:30:00,24.4,65.8,6999.04,0.0,1
2023-11-04 16:40:00,24,66.2,4999.68,0.0,1
2023-11-04 16:50:00,23.9,71.7,2997.76,0.0,1
2023-11-04 17:00:00,23.6,76.4,1999.36,0.0,1
2023-11-04 17:10:00,23,80.4,999.68,0.0,2
2023-11-04 17:20:00,22.5,84.5,456,0.0,1.5
2023-11-04 17:30:00,22.4,85.6,118,0.0,1.5
2023-11-04 17:40:00,22.2,86.1,14,0.0,1
2023-11-04 17:50:00,22.1,86.3,2,0.0,2.5
2023-11-04 18:00:00,22,86.9,2,0.0,2
2023-11-04 18:10:00,21.8,87.4,2,0.0,1.5
2023-11-04 18:20:00,22,86.2,2,0.0,1
2023-11-04 18:30:00,22,86,2,0.0,1
2023-11-04 18:40:00,21.6,86.6,2,0.0,0
2023-11-04 18:50:00,21.4,87.1,2,0.0,0.5
2023-11-04 19:00:00,21.2,87.5,2,0.0,1
2023-11-04 19:10:00,20.9,88.6,2,0.0,1
2023-11-04 19:20:00,20.8,89,2,0.0,1
2023-11-04 19:30:00,20.6,89.3,2,0.0,1
2023-11-04 19:40:00,20.4,89.9,2,0.0,1
2023-11-04 19:50:00,20.5,90.4,2,0.0,1
2023-11-04 20:00:00,20.3,90.4,2,0.0,1
2023-11-04 20:10:00,20.1,90.5,2,0.0,1
2023-11-04 20:20:00,20.1,90.7,2,0.0,1
2023-11-04 20:30:00,19.9,90.3,2,0.0,1
2023-11-04 20:40:00,19.7,89.4,2,0.0,1
2023-11-04 20:50:00,19.8,90.1,0,0.0,0
2023-11-04 21:00:00,19.6,90.5,2,0.0,0
2023-11-04 21:10:00,19.4,90.8,2,0.0,1
2023-11-04 21:20:00,19.1,90.5,0,0.0,1
2023-11-04 21:30:00,19.2,90.3,2,0.0,1
2023-11-04 21:40:00,19.3,89.8,2,0.0,1
2023-11-04 21:50:00,19.2,89.9,0,0.0,1
2023-11-04 22:00:00,18.9,90.4,2,0.0,2
2023-11-04 22:10:00,18.9,90.5,2,0.0,1
2023-11-04 22:20:00,18.8,90.5,2,0.0,1.5
2023-11-04 22:30:00,18.7,90.4,2,0.0,2
2023-11-04 22:40:00,18.8,90.6,0,0.0,2
2023-11-04 22:50:00,18.4,90.5,2,0.0,1
2023-11-04 23:00:00,18.4,90.8,2,0.0,1
2023-11-04 23:10:00,18.1,91.1,0,0.0,2
2023-11-04 23:20:00,18.1,91.5,2,0.0,1
2023-11-04 23:30:00,18.1,91.4,0,0.0,1
2023-11-04 23:40:00,17.9,91.5,2,0.0,2
2023-11-04 23:50:00,17.9,91.7,2,0.0,1